Home > Weather > Philadelphia > Past weeks

Flag for USA Past Weather in Philadelphia, Pennsylvania, USA — Yesterday and Last 2 Weeks

Now
90 °F

Partly sunny.


Feels Like: 93 °F
Forecast: 73 / 93 °F
Wind: 13 mph from Northwest

Location: Philadelphia International Airport

Current Time: Jul 26, 2016 at 1:58:30 PM

Latest Report: Jul 26, 2016 at 12:54 PM


Visibility: 10 mi

Pressure: 29.92 "Hg

Humidity: 45%

Dew Point: 66 °F

Location of PhiladelphiaLocation

Past Weather in Philadelphia — Graph

°F

Philadelphia Temperature Yesterday

Maximum temperature yesterday: 96 °F (at 3:54 PM)
Minimum temperature yesterday: 75 °F (at 5:54 AM)
Average temperature yesterday: 83 °F

High & Low Weather Summary for the Past Weeks

 TemperatureHumidityPressure
High96 °F (Jul 23, 3:54 PM)96% (Jul 14, 6:57 AM)30.22 "Hg (Jul 14, 6:57 AM)
Low67 °F (Jul 12, 3:54 AM)29% (Jul 19, 3:54 PM)29.81 "Hg (Jul 14, 5:54 PM)
Average81 °F64%30.01 "Hg
* Reported Jul 11 11:54 AM — Jul 26 11:54 AM, Philadelphia, Weather by CustomWeather, © 2016

Note: Actual official high and low records may vary slightly from our data, if they occured in-between our weather recording intervals... More about our weather records

Advertising

Philadelphia Weather History for the Previous 24 Hours

Scroll right to see more
 ConditionsComfort  
Time TempWeatherWind HumidityBarometerVisibility
11:54 AM
Tue, Jul 26
89 °FPartly sunny.9 mph48%29.94 "Hg10 mi
10:54 AM86 °FScattered clouds.8 mph55%29.94 "Hg10 mi
9:54 AM84 °FPartly sunny.9 mph63%29.94 "Hg10 mi
8:54 AM82 °FPartly sunny.9 mph72%29.94 "Hg10 mi
7:54 AM77 °FPartly sunny.3 mph82%29.94 "Hg10 mi
6:54 AM75 °FPartly sunny.7 mph85%29.93 "Hg10 mi
5:54 AM75 °FPartly cloudy.6 mph88%29.91 "Hg10 mi
5:00 AM75 °FPartly cloudy.8 mph88%29.91 "Hg8 mi
3:54 AM75 °FFog.7 mph94%29.91 "Hg6 mi
2:54 AM75 °FPassing clouds.8 mph94%29.91 "Hg9 mi
1:54 AM76 °FPassing clouds.8 mph91%29.91 "Hg10 mi
12:54 AM75 °FPassing clouds.8 mph94%29.91 "Hg10 mi
11:54 PM
Mon, Jul 25
75 °FPassing clouds.5 mph90%29.91 "Hg10 mi
10:54 PM75 °FOvercast.9 mph90%29.91 "Hg10 mi
10:04 PM76 °FThunderstorms. Overcast.No wind88%29.93 "Hg10 mi
9:54 PM76 °FPartly cloudy.No wind85%29.92 "Hg10 mi
8:54 PM75 °FCloudy.9 mph90%29.92 "Hg10 mi
7:54 PM75 °FThunderstorms. Fog.18 mph90%29.93 "Hg3 mi
6:54 PM94 °FThunderstorms. Broken clouds.15 mph52%29.82 "Hg10 mi
5:54 PM96 °FBroken clouds.16 mph47%29.82 "Hg10 mi
4:54 PM94 °FBroken clouds.15 mph52%29.83 "Hg10 mi
3:54 PM96 °FBroken clouds.16 mph51%29.83 "Hg10 mi
2:54 PM95 °FBroken clouds.8 mph52%29.86 "Hg10 mi
1:54 PM94 °FBroken clouds.9 mph54%29.88 "Hg9 mi
Weather by CustomWeather, © 2016

See weather overviewHow to use our weather pages